Location: Bremen
(53.0793°N, 8.8017°E)
Time: 21:37:50
(UTC+02:00)

Envisat - Pass Details

Date: 07 March 2024
Orbit: 762 x 764 km, 98.3° (Epoch: 13 April)

Event Time Altitude Azimuth Distance (km) Brightness Sun altitude
Rises 04:12:55 0° 14° (NNE) 3,244 6.8 -24.9°
Reaches altitude 10° 04:15:14 10° 14° (NNE) 2,313 6.0 -24.6°
Maximum altitude 04:20:20 83° 287° (WNW) 777 2.8 -23.9°
Enters shadow 04:21:17 60° 210° (SSW) 874 3.0 -23.7°
